Skip Page Navigation
NASA JPL Caltech
NASA Logo - Jet Propulsion Laboratory + View the NASA Portal
+ Center for Near-Earth Object Studies
JPL Home Earth Solar System Stars & Galaxies Technology
JPL Solar System Dynamics
BODIES ORBITS EPHEMERIDES TOOLS PHYSICAL DATA DISCOVERY FAQ SITE MAP
IMPORTANT: The SSD Announcement email list is now available. Major changes are coming in the near future, including possible hostname and/or URL changes. To be notified of such changes, subscribe to this email list.

Please visit this page for more details.


JPL Small-Body Database Browser
Search: [ help ]  
65159 Sprowls (2002 CN152)
Classification: Main-belt Asteroid          SPK-ID: 2065159
Ephemeris | Orbit Diagram | Orbital Elements | Mission Design | Physical Parameters | Discovery Circumstances ]

[ show orbit diagram ]
Orbital Elements at Epoch 2459000.5 (2020-May-31.0) TDB
Reference: JPL 19 (heliocentric ecliptic J2000)
 Element Value Uncertainty (1-sigma)   Units 
e .03470319198520885 4.8671e-08  
a 3.068179406941375 2.5308e-08 au
q 2.961703787937224 1.5588e-07 au
i 10.74115615320022 4.8614e-06 deg
node 113.3198459187913 2.7559e-05 deg
peri 264.804712653662 7.7211e-05 deg
M 284.4622454283673 7.4264e-05 deg
tp 2459412.389881354848
(2021-Jul-16.88988135)
0.00040682 TDB
period 1962.996625047023
5.37
2.4288e-05
6.65e-08
d
yr
n .1833930814788723 2.2691e-09 deg/d
Q 3.174655025945525 2.6187e-08 au
  Orbit Determination Parameters
   # obs. used (total)      882  
   data-arc span      10397 days (28.47 yr)  
   first obs. used      1991-02-08  
   last obs. used      2019-07-28  
   planetary ephem.      DE431  
   SB-pert. ephem.      SB431-N16  
   condition code      0  
   norm. resid. RMS      .54613  
   source      ORB  
   producer      Otto Matic  
   solution date      2020-Feb-23 14:35:19  

Additional Information
 Earth MOID = 1.98569 au 
 Jupiter MOID = 2.05358 au 
 T_jup = 3.204 
[ show covariance matrix ]

Ephemeris | Orbit Diagram | Orbital Elements | Mission Design | Physical Parameters | Discovery Circumstances ]

Physical Parameter Table
Parameter Symbol Value Units Sigma Reference Notes
absolute magnitude H 14.3   n/a MPO436236  

65159 Sprowls           Discovered 2002 Feb. 14 by D. T. Durig at the Cordell-Lorenz Observatory.
Marlene Sprowls Durig has supported the research and helped edit the publications of her husband (and the discoverer's father), James R. Durig.
NOTE: some special characters may not display properly (any characters within {} are an attempt to place the proper accent above a character)
Reference: 20031110/MPCPages.arcLast Updated: 2003-11-12

Alternate Designations
 2002 CN152 = 1993 NF2 = 2000 WU35 
Ephemeris | Orbit Diagram | Orbital Elements | Mission Design | Physical Parameters | Discovery Circumstances ]
ABOUT SSD CREDITS/AWARDS PRIVACY/COPYRIGHT GLOSSARY LINKS
FirstGov 2020-Jun-01 20:50 UT
(server date/time)  
NASA Home Page
Site Manager:   Ryan S. Park
Webmaster  Alan B. Chamberlin